Grand Forks, ND

1:35 AM CDT on May 23, 2017 (GMT -0500)
Grand Forks International

Weather History for KGFK - August, 2012

Change the Weather History Date:

Wednesday, August 22, 2012

  Actual Average Record
Temperature  
Mean Temperature 74 °F 66 °F  
Max Temperature 92 °F 79 °F 99 °F (1947)
Min Temperature 55 °F 53 °F 40 °F (1967)
Degree Days  
Heating Degree Days 0 2  
Month to date heating degree days 25 28  
Since 1 June heating degree days 67 159  
Since 1 July heating degree days 25 56  
Cooling Degree Days 9 3  
Month to date cooling degree days 61 97  
Year to date cooling degree days 487 330  
Since 1 June cooling degree days 465 313  
Growing Degree Days 23 (Base 50)    
Moisture  
Dew Point 54 °F    
Average Humidity 56    
Maximum Humidity 86    
Minimum Humidity 25    
Precipitation  
Precipitation 0.00 in 0.10 in 1.76 in (2015)
Month to date precipitation 1.31 2.05  
Year to date precipitation 12.88 14.40  
Snow  
Snow 0.00 in 0.00 in - ()
Month to date snowfall 0.0 0.0  
Since 1 June snowfall 0.0 0.0  
Since 1 July snowfall 0.0 0.0  
Snow Depth 0.00 in    
Sea Level Pressure  
Sea Level Pressure 29.81 in    
Wind  
Wind Speed 7 mph (SSE)    
Max Wind Speed 15 mph    
Max Gust Speed 18 mph    
Visibility 10 miles    
Events      
T = Trace of Precipitation, MM = Missing Value Source: NWS Daily Summary

Daily Weather History Graph

Daily Weather History Graph

Search for Another Location

Airport or City:

Trip Planner

Search our weather history database for the weather conditions in past years. The results will help you decide how hot, cold, wet, or windy it might be!

Date:

Astronomy

Aug. 22, 2012 Rise Set
Actual Time 6:33 AM CDT 8:28 PM CDT
Civil Twilight 6:00 AM CDT 9:01 PM CDT
Nautical Twilight 5:19 AM CDT 9:41 PM CDT
Astronomical Twilight 4:34 AM CDT 10:26 PM CDT
Moon 12:46 PM CDT (8/22) 10:36 PM CDT (8/22)
Length of Visible Light 15h 00m
Length of Day
13h 54m
Waxing Crescent, 29% of the Moon is Illuminated
Aug 22
Waxing Crescent
Aug 24
First Quarter
Aug 31
Full
Sep 8
Last Quarter
Sep 15
New

Hourly Weather History & Observations

Time (CDT) Temp. Heat Index Dew Point Humidity Pressure Visibility Wind Dir Wind Speed Gust Speed Precip Events Conditions
12:53 AM 62.1 °F - 54.0 °F 75% 29.82 in 10.0 mi South 6.9 mph - N/A   Clear
1:53 AM 61.0 °F - 53.1 °F 75% 29.83 in 10.0 mi ESE 6.9 mph - N/A   Clear
2:53 AM 60.1 °F - 53.1 °F 78% 29.83 in 10.0 mi SE 3.5 mph - N/A   Clear
3:53 AM 57.9 °F - 53.1 °F 84% 29.83 in 10.0 mi SE 4.6 mph - N/A   Clear
4:53 AM 55.9 °F - 52.0 °F 87% 29.83 in 10.0 mi SSE 4.6 mph - N/A   Clear
5:53 AM 55.9 °F - 52.0 °F 87% 29.84 in 10.0 mi SE 5.8 mph - N/A   Partly Cloudy
6:53 AM 55.9 °F - 52.0 °F 87% 29.86 in 10.0 mi SSE 6.9 mph - N/A   Partly Cloudy
7:53 AM 59.0 °F - 54.0 °F 83% 29.86 in 10.0 mi SSE 5.8 mph - N/A   Partly Cloudy
8:53 AM 64.9 °F - 55.0 °F 70% 29.85 in 10.0 mi South 5.8 mph - N/A   Partly Cloudy
9:53 AM 71.1 °F - 57.0 °F 61% 29.85 in 10.0 mi South 8.1 mph - N/A   Scattered Clouds
10:53 AM 75.9 °F - 57.9 °F 54% 29.84 in 10.0 mi SSE 9.2 mph - N/A   Scattered Clouds
11:53 AM 82.9 °F 82.1 °F 55.9 °F 39% 29.83 in 10.0 mi SSW 11.5 mph - N/A   Scattered Clouds
12:53 PM 84.2 °F 82.8 °F 53.6 °F 35% 29.82 in 10.0 mi South 8.1 mph - N/A   Mostly Cloudy
1:53 PM 88.0 °F - 50.0 °F 27% 29.80 in 10.0 mi SSE 10.4 mph - N/A   Mostly Cloudy
2:53 PM 88.0 °F - 50.0 °F 27% 29.79 in 10.0 mi SSE 11.5 mph - N/A   Mostly Cloudy
3:53 PM 91.9 °F - 51.1 °F 25% 29.77 in 10.0 mi South 15.0 mph - N/A   Mostly Cloudy
4:53 PM 90.0 °F - 52.0 °F 27% 29.76 in 10.0 mi South 6.9 mph - N/A   Mostly Cloudy
5:53 PM 91.0 °F - 50.0 °F 24% 29.76 in 10.0 mi SSE 6.9 mph - N/A   Mostly Cloudy
6:53 PM 87.1 °F 84.9 °F 53.1 °F 31% 29.77 in 10.0 mi SSE 8.1 mph - N/A   Mostly Cloudy
7:53 PM 82.9 °F 82.1 °F 55.9 °F 39% 29.77 in 10.0 mi SE 5.8 mph - N/A   Mostly Cloudy
8:53 PM 78.1 °F - 57.0 °F 48% 29.77 in 10.0 mi SSE 4.6 mph - N/A   Mostly Cloudy
9:53 PM 73.9 °F - 57.9 °F 57% 29.77 in 10.0 mi SE 3.5 mph - N/A   Mostly Cloudy
10:53 PM 73.0 °F - 59.0 °F 61% 29.76 in 10.0 mi SE 9.2 mph - N/A   Mostly Cloudy
11:53 PM 72.0 °F - 59.0 °F 64% 29.76 in 10.0 mi SE 5.8 mph - N/A   Mostly Cloudy